This is the latest recevied weather packets stored in our database for station/object KD0RII. If no packets are shown the sender has not sent any weather packets the latest 10 day(s).
| Time | Temp. | Humidity | Pressure | Rain* | Wind** | Luminosity | Snow |
|---|---|---|---|---|---|---|---|
| 1777391536 | 11.67° C | 74% | 1018.2 hPa | 0 mm | - | 207 W/m² | - |
| 1777391227 | 11.11° C | 76% | 1018.2 hPa | 0 mm | - | 223 W/m² | - |
| 1777390924 | 11.67° C | 73% | 1018.4 hPa | 0 mm | - | 307 W/m² | - |
| 1777390620 | 12.22° C | 73% | 1018.2 hPa | 0 mm | - | 293 W/m² | - |
| 1777390316 | 11.67° C | 75% | 1017.6 hPa | 0 mm | - | 526 W/m² | - |
| 1777390012 | 11.11° C | 75% | 1017.4 hPa | 0 mm | - | 329 W/m² | - |
| 1777389709 | 11.11° C | 76% | 1018 hPa | 0 mm | - | 272 W/m² | - |
| 1777389406 | 10.56° C | 76% | 1018.2 hPa | 0 mm | - | 268 W/m² | - |
| 1777389104 | 10.56° C | 77% | 1018.6 hPa | 0 mm | - | 189 W/m² | - |
| 1777388800 | 10.56° C | 77% | 1018.6 hPa | 0 mm | - | 218 W/m² | - |
| 1777388498 | 10.56° C | 77% | 1018.7 hPa | 0 mm | - | 156 W/m² | - |
| 1777388192 | 10.56° C | 77% | 1019.1 hPa | 0 mm | - | 119 W/m² | - |
| 1777387888 | 10.56° C | 78% | 1019.1 hPa | 0 mm | - | 168 W/m² | - |
| 1777387585 | 10° C | 78% | 1018.6 hPa | 0 mm | - | 176 W/m² | - |
| 1777387281 | 10° C | 78% | 1018.5 hPa | 0 mm | - | 170 W/m² | - |
| 1777386975 | 10.56° C | 78% | 1018.6 hPa | 0 mm | - | 146 W/m² | - |
| 1777386673 | 10° C | 78% | 1018.4 hPa | 0 mm | - | 175 W/m² | - |
| 1777386370 | 10° C | 79% | 1018.3 hPa | 0 mm | - | 166 W/m² | - |
| 1777386067 | 10° C | 79% | 1018.7 hPa | 0 mm | - | 146 W/m² | - |
| 1777385763 | 10° C | 79% | 1018.6 hPa | 0 mm | - | 108 W/m² | - |
| 1777385461 | 10° C | 79% | 1018.8 hPa | 0 mm | - | 91 W/m² | - |
| 1777385156 | 9.44° C | 79% | 1019 hPa | 0 mm | - | 96 W/m² | - |
| 1777384852 | 10° C | 79% | 1019.3 hPa | 0 mm | - | 93 W/m² | - |
| 1777384550 | 9.44° C | 79% | 1019 hPa | 0 mm | - | 90 W/m² | - |
| 1777384244 | 9.44° C | 79% | 1019.4 hPa | 0 mm | - | 84 W/m² | - |
* Rain latest hour (hover to see other rain measurements)
** Current wind speed in m/s (hover to see current wind gust speed)